Temp
-18 -18 -18 -18 -17 -17 -17 -17 -17 -17 -17 -17 -17 -18 -18 -18 -19 -19 -19 -19 -19 -19 -19 -18 -18 -19 -19 -20 -20 -20 -19 -19 -19 -19 -18 -18 -18 -18 -17 -17 -17 -17 -17 -17 -17 -17 -17 -16 -16 -16 -16 -16 -16 -16
-19 -18 -18 -18 -17 -17 -17 -17 -17 -17 -17 -17 -17 -18 -18 -18 -18 -18 -19 -19 -19 -18 -19 -18 -18 -18 -19 -19 -19 -19 -20 -19 -19 -19 -19 -18 -18 -18 -18 -18 -17 -17 -17 -17 -17 -17 -17 -16 -16 -16 -16 -16 -16 -16
-19 -19 -18 -18 -17 -17 -17 -17 -17 -17 -17 -17 -17 -18 -18 -18 -18 -18 -18 -18 -18 -18 -18 -18 -19 -19 -19 -20 -20 -20 -20 -20 -20 -19 -19 -19 -19 -19 -18 -18 -18 -17 -17 -17 -17 -17 -16 -16 -16 -16 -16 -16 -16 -16
-19 -18 -18 -18 -17 -17 -17 -17 -17 -17 -17 -18 -18 -18 -18 -18 -18 -18 -18 -18 -18 -17 -17 -18 -18 -18 -19 -20 -20 -21 -21 -20 -20 -20 -20 -20 -20 -19 -19 -18 -18 -17 -17 -17 -17 -17 -17 -16 -16 -16 -16 -16 -16 -16
-19 -18 -18 -18 -17 -17 -17 -17 -17 -18 -17 -18 -18 -18 -18 -18 -18 -18 -18 -18 -18 -18 -19 -20 -20 -21 -21 -21 -21 -21 -21 -21 -20 -21 -21 -21 -20 -20 -19 -19 -19 -17 -17 -17 -17 -16 -16 -16 -16 -16 -16 -16 -16 -16
-19 -18 -18 -18 -18 -18 -18 -18 -18 -18 -17 -17 -18 -19 -19 -18 -18 -18 -17 -18 -21 -23 -23 -24 -24 -23 -23 -22 -22 -21 -22 -21 -21 -21 -21 -21 -20 -20 -20 -20 -19 -18 -17 -17 -17 -16 -16 -17 -16 -16 -16 -16 -16 -17
-20 -19 -19 -19 -18 -18 -18 -18 -18 -18 -18 -19 -19 -19 -19 -18 -18 -18 -19 -22 -23 -23 -24 -23 -24 -23 -22 -22 -22 -21 -22 -22 -21 -21 -21 -21 -21 -20 -20 -19 -19 -18 -17 -17 -17 -17 -17 -16 -16 -16 -16 -16 -17 -17
-20 -20 -20 -19 -19 -19 -19 -19 -19 -19 -19 -19 -19 -19 -19 -18 -19 -21 -22 -23 -23 -23 -22 -22 -22 -22 -22 -22 -22 -21 -21 -21 -21 -21 -21 -21 -20 -20 -20 -19 -19 -18 -18 -17 -17 -17 -17 -16 -17 -16 -16 -17 -17 -17
-21 -20 -20 -20 -19 -20 -19 -19 -19 -19 -20 -20 -19 -19 -19 -20 -22 -22 -22 -22 -22 -22 -22 -22 -22 -22 -22 -22 -21 -21 -21 -21 -21 -21 -21 -21 -20 -20 -20 -19 -19 -18 -18 -17 -17 -17 -17 -17 -17 -17 -17 -17 -17 -18
-22 -22 -21 -20 -20 -20 -20 -19 -19 -20 -20 -20 -20 -20 -21 -21 -21 -21 -22 -22 -22 -22 -22 -22 -21 -21 -21 -21 -21 -21 -21 -21 -21 -21 -21 -21 -20 -20 -20 -19 -19 -18 -18 -18 -17 -17 -17 -17 -18 -17 -17 -17 -17 -18
-22 -22 -22 -21 -20 -20 -20 -20 -20 -20 -20 -20 -20 -21 -22 -22 -22 -21 -21 -21 -22 -22 -22 -22 -21 -21 -21 -21 -21 -21 -21 -21 -21 -21 -21 -21 -21 -20 -20 -20 -19 -19 -18 -18 -18 -18 -18 -18 -18 -18 -17 -17 -18 -18
-23 -22 -22 -22 -21 -21 -20 -21 -20 -20 -20 -20 -20 -21 -22 -22 -21 -21 -21 -21 -21 -21 -21 -21 -21 -21 -21 -21 -21 -21 -21 -21 -21 -21 -21 -21 -21 -20 -20 -20 -19 -19 -19 -18 -18 -18 -18 -18 -18 -18 -18 -18 -18 -18
-23 -23 -23 -22 -22 -21 -21 -21 -21 -21 -21 -21 -20 -21 -21 -22 -21 -21 -21 -21 -21 -21 -21 -21 -21 -21 -21 -21 -21 -21 -21 -21 -21 -21 -21 -21 -21 -21 -20 -20 -20 -19 -19 -18 -18 -18 -18 -18 -18 -18 -18 -18 -18 -18
-25 -24 -24 -23 -22 -22 -22 -22 -22 -21 -21 -21 -21 -21 -21 -21 -22 -21 -21 -21 -21 -21 -21 -21 -21 -21 -21 -21 -21 -21 -21 -21 -21 -21 -21 -21 -21 -21 -20 -20 -20 -19 -19 -19 -18 -18 -18 -18 -18 -17 -17 -17 -18 -18
-25 -25 -25 -25 -24 -23 -23 -22 -22 -22 -21 -21 -21 -21 -21 -22 -22 -22 -22 -21 -21 -21 -21 -21 -21 -21 -21 -21 -21 -21 -21 -21 -21 -21 -21 -21 -21 -21 -21 -20 -20 -20 -19 -19 -19 -19 -18 -19 -18 -18 -18 -18 -18 -18
-26 -26 -25 -25 -24 -24 -24 -24 -23 -22 -22 -21 -21 -22 -22 -22 -22 -22 -22 -22 -21 -21 -22 -22 -21 -21 -21 -21 -21 -21 -21 -21 -21 -21 -21 -21 -21 -21 -21 -21 -21 -20 -20 -20 -19 -19 -19 -19 -19 -18 -18 -18 -18 -18
-26 -26 -26 -26 -25 -25 -25 -24 -24 -23 -23 -22 -22 -22 -22 -22 -22 -22 -22 -22 -22 -22 -22 -22 -22 -22 -21 -21 -21 -22 -22 -22 -22 -21 -21 -21 -21 -21 -21 -21 -21 -21 -21 -20 -20 -20 -20 -19 -19 -19 -19 -19 -19 -19
-27 -27 -26 -26 -26 -26 -25 -25 -24 -24 -23 -23 -23 -22 -22 -22 -22 -22 -22 -23 -22 -22 -22 -22 -22 -22 -21 -21 -22 -22 -22 -22 -22 -22 -22 -21 -21 -21 -21 -21 -21 -21 -21 -21 -21 -21 -20 -20 -20 -20 -19 -19 -19 -19
-27 -27 -26 -26 -26 -26 -25 -25 -24 -24 -24 -23 -23 -23 -23 -22 -22 -22 -22 -22 -22 -22 -22 -22 -22 -22 -22 -22 -22 -22 -22 -22 -22 -22 -22 -22 -21 -21 -21 -21 -21 -21 -21 -21 -21 -21 -21 -21 -21 -21 -20 -20 -20 -20
-28 -27 -27 -26 -26 -26 -26 -25 -25 -24 -24 -23 -23 -23 -22 -23 -22 -22 -22 -22 -22 -22 -22 -22 -22 -22 -22 -22 -22 -22 -22 -22 -22 -21 -21 -22 -22 -21 -21 -21 -21 -21 -21 -21 -21 -21 -21 -21 -21 -21 -21 -21 -21 -21
-28 -28 -27 -27 -27 -27 -26 -26 -25 -25 -24 -23 -23 -23 -23 -23 -23 -22 -22 -22 -22 -22 -22 -22 -22 -22 -22 -22 -22 -22 -22 -22 -22 -22 -22 -22 -21 -22 -22 -22 -22 -21 -21 -21 -21 -21 -21 -21 -21 -21 -21 -21 -21 -21
-28 -28 -28 -27 -27 -27 -26 -26 -26 -25 -24 -24 -23 -23 -23 -23 -23 -23 -23 -22 -23 -22 -22 -22 -22 -22 -22 -22 -21 -21 -22 -22 -21 -21 -22 -22 -22 -22 -22 -22 -22 -21 -21 -21 -21 -21 -21 -21 -21 -21 -21 -21 -21 -21
-28 -29 -28 -28 -28 -27 -26 -27 -26 -25 -24 -24 -24 -23 -23 -24 -23 -23 -22 -23 -23 -23 -22 -22 -22 -22 -22 -22 -22 -22 -22 -22 -22 -22 -21 -22 -22 -22 -22 -22 -22 -22 -22 -22 -22 -22 -22 -21 -21 -21 -21 -21 -21 -21
-29 -29 -29 -28 -28 -27 -26 -26 -26 -26 -25 -24 -24 -24 -24 -24 -24 -23 -23 -23 -23 -22 -22 -22 -23 -23 -22 -22 -22 -22 -22 -22 -22 -22 -22 -22 -22 -22 -22 -22 -22 -22 -22 -22 -22 -22 -22 -22 -22 -22 -21 -22 -21 -21
-29 -29 -29 -28 -28 -27 -27 -27 -27 -26 -25 -25 -25 -25 -24 -24 -24 -23 -23 -23 -23 -22 -23 -23 -23 -23 -23 -23 -23 -22 -22 -22 -22 -22 -22 -22 -22 -22 -22 -22 -22 -22 -22 -22 -22 -22 -22 -22 -22 -22 -22 -21 -21 -21
-29 -29 -29 -28 -28 -27 -27 -27 -27 -26 -26 -25 -25 -25 -25 -24 -24 -24 -24 -23 -23 -23 -23 -23 -23 -23 -23 -23 -23 -23 -23 -23 -23 -23 -23 -23 -23 -23 -23 -23 -23 -23 -22 -22 -22 -22 -22 -22 -22 -21 -21 -21 -21 -21
-30 -29 -29 -28 -28 -28 -28 -27 -27 -26 -26 -26 -26 -25 -25 -25 -24 -24 -24 -24 -23 -23 -23 -23 -23 -23 -23 -23 -23 -23 -23 -23 -23 -23 -23 -23 -23 -23 -23 -23 -23 -23 -23 -22 -22 -22 -22 -22 -22 -21 -21 -21 -21 -21
-30 -29 -29 -29 -28 -28 -28 -27 -27 -26 -26 -26 -26 -26 -25 -25 -25 -24 -24 -24 -23 -23 -23 -24 -24 -24 -24 -24 -23 -23 -23 -23 -23 -23 -23 -23 -23 -23 -23 -23 -23 -23 -22 -22 -22 -21 -21 -21 -21 -21 -21 -21 -21 -21
-29 -29 -29 -28 -28 -28 -28 -27 -27 -26 -26 -26 -26 -26 -25 -25 -25 -24 -24 -24 -24 -24 -24 -24 -24 -24 -24 -24 -24 -24 -24 -24 -24 -24 -24 -24 -24 -24 -23 -23 -23 -22 -22 -22 -22 -22 -22 -22 -22 -22 -22 -21 -21 -21
-30 -29 -28 -28 -28 -28 -28 -27 -27 -27 -27 -26 -26 -26 -26 -25 -24 -24 -24 -24 -24 -24 -24 -24 -24 -24 -24 -24 -24 -24 -24 -24 -24 -24 -24 -24 -24 -23 -23 -23 -23 -23 -24 -24 -25 -25 -25 -24 -24 -24 -24 -24 -24 -23
-29 -28 -28 -28 -28 -28 -27 -27 -27 -27 -26 -26 -26 -26 -25 -25 -25 -25 -24 -24 -24 -24 -24 -24 -25 -25 -24 -24 -24 -24 -24 -24 -24 -24 -24 -24 -23 -23 -24 -24 -25 -26 -26 -27 -27 -27 -27 -27 -26 -25 -25 -25 -25 -24
-28 -28 -28 -28 -28 -28 -27 -27 -27 -27 -27 -26 -26 -26 -25 -25 -25 -25 -24 -25 -25 -25 -25 -25 -25 -25 -25 -24 -25 -25 -25 -25 -25 -24 -24 -24 -24 -25 -26 -27 -28 -28 -28 -29 -29 -29 -28 -28 -27 -26 -26 -26 -26 -26
-28 -28 -28 -28 -27 -27 -27 -27 -27 -27 -27 -26 -26 -26 -26 -25 -25 -25 -25 -25 -25 -25 -25 -25 -25 -25 -25 -25 -26 -25 -25 -25 -24 -24 -24 -25 -27 -27 -28 -28 -28 -29 -29 -29 -28 -28 -28 -28 -28 -27 -27 -27 -26 -26
Height
5606 5605 5604 5603 5603 5602 5601 5601 5602 5601 5602 5601 5600 5598 5597 5595 5594 5593 5590 5589 5588 5589 5587 5585 5585 5587 5589 5591 5594 5597 5599 5601 5602 5603 5604 5605 5607 5610 5612 5614 5616 5618 5620 5621 5623 5624 5625 5626 5627 5628 5629 5627 5626 5624
5596 5595 5593 5592 5592 5591 5591 5590 5592 5593 5594 5593 5592 5590 5587 5585 5583 5581 5579 5576 5575 5574 5576 5573 5573 5575 5579 5581 5585 5588 5593 5594 5597 5598 5599 5601 5602 5605 5607 5610 5612 5615 5616 5617 5620 5621 5622 5623 5624 5624 5624 5623 5622 5621
5585 5584 5582 5582 5582 5582 5582 5582 5583 5584 5585 5584 5583 5581 5578 5576 5572 5567 5563 5560 5558 5557 5557 5556 5559 5559 5563 5569 5573 5579 5583 5587 5590 5593 5594 5595 5597 5600 5602 5605 5607 5609 5610 5613 5614 5616 5618 5619 5620 5620 5620 5620 5619 5618
5576 5574 5573 5573 5573 5573 5574 5575 5576 5576 5577 5576 5574 5571 5568 5564 5559 5552 5547 5539 5534 5530 5530 5530 5531 5539 5545 5551 5560 5567 5574 5579 5583 5586 5589 5590 5592 5595 5597 5599 5601 5601 5604 5606 5609 5610 5612 5614 5615 5615 5615 5615 5614 5613
5567 5565 5565 5565 5565 5565 5566 5567 5568 5568 5569 5567 5565 5562 5559 5552 5545 5537 5526 5515 5502 5494 5491 5491 5496 5510 5524 5538 5551 5559 5566 5572 5576 5580 5583 5586 5588 5590 5591 5594 5592 5595 5599 5602 5605 5603 5607 5609 5610 5611 5611 5610 5609 5609
5560 5559 5558 5558 5558 5558 5559 5560 5562 5562 5561 5560 5557 5553 5549 5542 5533 5520 5505 5488 5471 5466 5466 5471 5481 5496 5517 5533 5545 5553 5559 5566 5570 5574 5579 5582 5583 5586 5588 5589 5587 5590 5593 5595 5598 5599 5602 5603 5603 5604 5604 5604 5604 5604
5556 5554 5553 5553 5553 5553 5554 5555 5556 5556 5555 5553 5550 5545 5540 5533 5521 5507 5492 5478 5471 5470 5473 5482 5492 5507 5520 5534 5543 5550 5556 5562 5566 5570 5574 5576 5579 5580 5583 5583 5584 5584 5587 5589 5590 5591 5593 5593 5596 5597 5598 5598 5598 5598
5552 5551 5549 5549 5548 5548 5549 5550 5550 5550 5548 5545 5543 5539 5534 5526 5514 5505 5497 5493 5491 5490 5490 5496 5504 5515 5525 5535 5542 5549 5555 5559 5563 5566 5569 5571 5575 5576 5577 5578 5578 5579 5581 5582 5583 5584 5586 5587 5589 5590 5592 5592 5592 5593
5546 5546 5545 5544 5544 5543 5544 5545 5545 5544 5542 5540 5537 5534 5529 5523 5518 5515 5511 5507 5504 5505 5506 5509 5515 5522 5530 5537 5543 5548 5553 5557 5561 5562 5564 5568 5570 5571 5571 5572 5573 5574 5574 5575 5576 5577 5578 5580 5582 5584 5585 5586 5587 5588
5538 5539 5539 5538 5539 5539 5538 5538 5539 5539 5537 5536 5533 5531 5530 5525 5525 5526 5521 5519 5516 5516 5517 5519 5523 5529 5535 5540 5544 5549 5551 5555 5557 5559 5560 5563 5565 5566 5566 5567 5567 5567 5568 5569 5570 5570 5572 5574 5576 5578 5579 5580 5582 5584
5527 5530 5531 5532 5533 5534 5534 5533 5532 5533 5532 5532 5531 5529 5530 5528 5529 5528 5527 5526 5525 5524 5524 5526 5529 5533 5537 5540 5543 5547 5549 5551 5554 5556 5557 5558 5560 5561 5562 5561 5561 5562 5563 5564 5565 5566 5567 5569 5571 5572 5573 5574 5577 5578
5519 5521 5523 5524 5525 5526 5527 5526 5526 5527 5527 5527 5528 5526 5527 5527 5528 5529 5528 5529 5529 5529 5529 5531 5533 5535 5538 5541 5544 5546 5547 5548 5550 5552 5553 5555 5556 5557 5558 5557 5556 5557 5558 5559 5560 5562 5564 5565 5566 5567 5568 5569 5571 5572
5510 5512 5513 5515 5516 5516 5518 5518 5520 5521 5521 5521 5523 5522 5522 5525 5526 5527 5527 5528 5529 5530 5531 5532 5534 5536 5538 5541 5543 5544 5545 5546 5547 5547 5549 5551 5552 5552 5553 5554 5553 5552 5552 5554 5556 5557 5558 5559 5560 5561 5561 5562 5564 5565
5502 5503 5504 5506 5507 5508 5509 5510 5512 5514 5514 5515 5516 5517 5516 5518 5523 5524 5525 5527 5528 5529 5530 5532 5534 5536 5538 5539 5541 5542 5543 5544 5544 5544 5545 5546 5547 5548 5549 5550 5550 5550 5549 5550 5550 5552 5553 5554 5554 5554 5554 5555 5557 5560
5498 5498 5497 5498 5499 5499 5500 5501 5503 5505 5507 5507 5509 5510 5511 5514 5516 5519 5521 5523 5525 5527 5528 5530 5532 5534 5535 5537 5538 5540 5541 5541 5542 5542 5542 5542 5543 5544 5545 5546 5546 5546 5546 5546 5545 5546 5548 5549 5549 5549 5549 5550 5552 5554
5491 5492 5492 5491 5491 5491 5492 5493 5494 5496 5497 5499 5501 5504 5505 5507 5510 5513 5516 5518 5521 5523 5524 5526 5528 5530 5532 5533 5535 5537 5538 5539 5540 5541 5541 5541 5541 5541 5541 5542 5542 5542 5542 5542 5542 5543 5543 5544 5545 5546 5547 5546 5547 5549
5485 5484 5485 5485 5485 5484 5485 5486 5486 5488 5488 5489 5492 5494 5497 5499 5502 5504 5508 5511 5514 5516 5519 5521 5524 5526 5528 5529 5531 5533 5535 5535 5536 5537 5538 5538 5539 5539 5539 5539 5539 5539 5538 5538 5539 5539 5540 5540 5541 5542 5543 5543 5544 5545
5478 5478 5478 5478 5478 5478 5478 5479 5480 5480 5481 5482 5484 5486 5489 5492 5494 5498 5501 5504 5506 5509 5511 5514 5517 5519 5522 5524 5526 5526 5527 5529 5530 5530 5531 5532 5533 5534 5534 5534 5535 5535 5535 5535 5534 5535 5535 5535 5536 5536 5537 5539 5540 5541
5469 5470 5470 5472 5471 5470 5470 5472 5472 5474 5474 5475 5477 5479 5481 5485 5488 5490 5493 5497 5499 5501 5503 5506 5508 5514 5515 5515 5516 5517 5519 5520 5522 5523 5523 5524 5525 5526 5527 5527 5528 5529 5529 5530 5530 5530 5530 5531 5531 5531 5531 5532 5532 5533
5460 5461 5462 5463 5463 5462 5462 5464 5465 5467 5468 5469 5470 5472 5474 5476 5480 5483 5486 5488 5490 5493 5495 5498 5502 5502 5503 5505 5507 5508 5509 5510 5511 5513 5513 5514 5515 5516 5517 5518 5518 5519 5520 5521 5522 5523 5524 5524 5525 5525 5526 5525 5525 5526
5453 5453 5452 5453 5454 5454 5454 5456 5458 5460 5461 5461 5463 5465 5468 5470 5472 5475 5479 5481 5484 5488 5489 5490 5491 5494 5496 5497 5497 5499 5500 5501 5501 5502 5502 5502 5502 5503 5503 5504 5505 5506 5507 5508 5510 5511 5513 5514 5516 5517 5517 5518 5519 5519
5443 5443 5443 5443 5444 5445 5447 5449 5450 5453 5454 5455 5457 5458 5460 5463 5465 5467 5470 5474 5478 5481 5482 5482 5484 5487 5488 5489 5490 5491 5491 5492 5492 5492 5492 5492 5492 5492 5492 5492 5491 5491 5493 5494 5496 5498 5499 5500 5502 5504 5506 5507 5509 5510
5432 5433 5433 5433 5434 5435 5441 5443 5444 5444 5445 5448 5449 5450 5452 5455 5458 5459 5462 5467 5470 5470 5473 5476 5478 5479 5480 5481 5482 5482 5483 5483 5483 5483 5482 5482 5482 5481 5481 5480 5480 5480 5480 5481 5482 5483 5484 5485 5486 5488 5490 5492 5495 5497
5421 5422 5422 5421 5423 5427 5433 5435 5436 5437 5438 5439 5441 5442 5444 5447 5450 5452 5456 5459 5460 5462 5465 5468 5469 5470 5471 5472 5473 5474 5474 5474 5473 5472 5472 5471 5470 5469 5469 5468 5468 5467 5468 5467 5467 5468 5469 5470 5471 5473 5474 5476 5478 5481
5408 5409 5409 5410 5416 5421 5424 5427 5428 5430 5431 5431 5433 5434 5437 5439 5442 5446 5449 5451 5452 5455 5458 5460 5461 5462 5462 5463 5463 5463 5463 5463 5462 5460 5459 5459 5458 5456 5455 5454 5453 5451 5452 5452 5452 5452 5451 5453 5454 5456 5457 5460 5463 5465
5392 5393 5398 5403 5408 5413 5416 5419 5421 5422 5423 5424 5425 5428 5430 5432 5435 5439 5441 5442 5445 5448 5450 5451 5452 5452 5453 5453 5453 5453 5452 5452 5451 5448 5445 5445 5444 5442 5441 5440 5438 5435 5434 5436 5435 5434 5433 5434 5436 5437 5440 5442 5445 5449
5375 5379 5390 5396 5401 5405 5409 5412 5413 5415 5416 5417 5419 5421 5423 5425 5429 5432 5433 5435 5437 5440 5441 5442 5443 5444 5443 5442 5442 5442 5441 5440 5438 5436 5432 5430 5427 5425 5425 5424 5421 5418 5416 5415 5414 5414 5414 5414 5416 5418 5420 5423 5427 5431
5362 5374 5383 5390 5393 5397 5400 5404 5406 5408 5409 5411 5413 5415 5417 5420 5423 5424 5426 5428 5430 5432 5433 5434 5434 5433 5433 5432 5432 5431 5429 5427 5425 5422 5419 5415 5411 5407 5406 5405 5402 5399 5396 5393 5391 5391 5391 5392 5393 5395 5398 5402 5407 5411
5357 5367 5375 5381 5385 5388 5393 5397 5399 5401 5404 5405 5407 5409 5412 5413 5415 5417 5419 5422 5423 5424 5424 5425 5424 5424 5423 5423 5421 5419 5416 5414 5411 5408 5404 5399 5394 5389 5386 5383 5380 5376 5373 5370 5367 5366 5366 5367 5369 5371 5375 5379 5384 5390
5355 5363 5370 5374 5377 5382 5386 5389 5392 5394 5396 5399 5401 5403 5405 5406 5408 5411 5413 5414 5415 5416 5416 5416 5416 5415 5413 5411 5408 5405 5402 5400 5396 5392 5388 5383 5378 5372 5366 5360 5356 5351 5347 5344 5341 5340 5341 5342 5344 5348 5353 5358 5363 5370
5352 5358 5364 5367 5370 5375 5379 5381 5385 5387 5390 5392 5395 5397 5398 5400 5403 5404 5405 5406 5407 5407 5408 5407 5406 5404 5402 5399 5396 5392 5387 5383 5379 5374 5369 5364 5358 5350 5343 5337 5331 5326 5323 5321 5319 5317 5316 5318 5321 5326 5332 5339 5346 5354
5349 5354 5359 5361 5366 5370 5372 5375 5378 5382 5385 5387 5389 5391 5393 5395 5396 5397 5398 5399 5400 5400 5399 5397 5396 5393 5390 5387 5383 5379 5374 5369 5363 5356 5350 5343 5335 5328 5321 5315 5310 5305 5302 5300 5298 5298 5299 5301 5305 5311 5318 5326 5335 5342
5345 5349 5353 5357 5360 5364 5367 5369 5373 5377 5379 5381 5383 5385 5387 5388 5390 5391 5391 5392 5391 5390 5389 5388 5386 5383 5379 5375 5371 5366 5361 5355 5348 5341 5333 5324 5317 5311 5304 5297 5292 5290 5289 5288 5289 5290 5292 5295 5301 5307 5314 5320 5327 5335
Wind_Speed
35 35 36 32 32 28 28 30 31 26 24 21 22 24 27 28 28 28 27 25 25 23 26 24 25 29 30 33 28 23 19 19 17 17 19 21 20 20 19 17 17 14 13 13 14 13 12 10 8 9 7 7 7 8
37 37 35 31 32 31 33 31 30 30 28 24 27 30 31 33 35 35 34 33 31 32 31 34 32 31 34 34 35 32 25 24 22 21 21 23 22 21 20 18 16 14 15 15 16 15 11 11 10 9 7 5 6 7
34 34 33 30 29 29 25 21 24 29 27 25 29 33 35 35 38 40 40 41 41 40 40 43 42 39 36 39 37 33 29 26 25 23 24 22 21 22 22 20 17 17 17 15 19 18 14 14 13 11 9 8 9 10
30 29 27 25 25 26 28 24 23 24 22 28 31 33 33 37 41 44 46 51 52 53 52 54 51 47 46 48 42 35 31 27 26 27 24 22 21 20 20 19 18 21 20 19 20 21 18 16 14 13 10 11 11 12
28 27 27 27 25 23 23 21 19 19 23 28 32 34 38 39 43 49 54 60 66 64 55 47 47 52 54 49 43 35 29 27 28 27 23 21 20 19 20 18 24 23 21 20 19 26 21 18 17 17 17 16 14 13
23 24 20 20 17 16 14 15 16 19 23 28 31 34 37 40 47 54 60 58 43 27 19 18 20 38 38 41 37 28 26 27 26 25 22 19 21 21 19 19 26 24 22 21 20 23 18 20 20 19 18 16 14 15
18 16 14 13 13 14 11 10 14 18 23 27 29 32 35 41 47 48 36 14 15 32 38 27 27 32 32 36 29 25 22 24 24 22 21 21 21 20 20 22 24 24 22 20 21 23 22 26 23 20 19 17 15 15
20 16 14 12 8 8 13 13 16 20 23 25 29 30 32 37 32 17 35 40 30 24 24 30 28 26 32 28 28 25 21 20 20 21 22 22 21 20 20 21 23 25 21 18 20 21 24 24 22 20 19 15 15 14
25 23 20 17 14 11 10 13 15 23 22 23 25 25 28 16 21 33 21 18 22 31 31 23 27 27 28 25 23 21 19 16 16 19 22 20 19 20 21 21 21 22 23 21 21 21 26 27 25 22 19 16 16 13
32 27 28 27 23 17 14 13 17 23 20 18 19 18 9 10 13 15 12 15 19 24 25 23 20 25 22 18 18 19 19 20 16 18 21 20 19 19 21 21 21 22 22 21 22 23 25 26 22 20 19 18 17 16
39 33 30 33 30 28 23 22 20 20 18 14 12 7 7 11 12 15 12 10 13 15 14 17 19 18 15 12 14 14 19 21 18 15 18 17 17 17 17 19 19 20 20 18 19 20 21 20 20 18 18 19 19 18
37 32 30 31 29 28 26 26 24 21 18 13 12 6 19 16 11 11 9 7 6 7 11 14 15 15 15 15 10 7 8 12 14 15 17 16 16 15 15 11 16 18 19 17 18 17 18 19 19 21 23 24 21 20
38 31 30 30 29 27 29 28 26 23 17 15 17 11 18 25 17 15 11 10 9 8 6 9 12 11 13 11 6 5 4 6 10 13 15 15 16 16 15 12 8 13 18 17 15 15 17 16 17 17 17 19 19 19
20 22 26 28 29 29 28 29 26 20 17 16 18 18 21 26 25 18 17 13 13 11 9 9 10 11 12 11 9 8 7 8 10 10 11 13 13 14 14 13 10 5 10 15 15 17 18 15 20 21 19 19 19 17
19 17 21 24 25 27 27 26 25 23 21 19 19 23 19 26 28 26 23 19 16 15 14 13 12 13 13 13 11 10 8 8 7 6 6 6 8 9 10 11 11 9 4 15 11 15 12 9 13 14 12 13 17 17
20 19 19 19 23 27 25 24 24 25 22 23 22 19 21 27 31 34 28 25 22 19 18 17 16 15 16 17 15 14 12 11 9 6 4 3 3 5 8 10 12 13 9 6 10 14 14 12 13 12 14 17 19 22
19 19 19 19 21 24 24 20 21 22 22 23 24 22 27 26 31 30 35 31 28 25 24 22 20 19 19 17 15 15 13 16 16 15 15 14 12 9 8 9 11 13 15 14 11 10 9 10 14 15 20 19 16 15
26 22 22 20 21 22 23 23 20 18 18 20 25 24 25 27 26 33 34 31 31 30 28 26 24 23 22 21 19 21 23 24 23 24 23 22 21 19 17 16 16 16 16 16 16 16 15 14 13 13 15 18 20 20
26 28 27 23 23 23 23 24 25 21 18 18 22 25 22 27 27 24 29 35 34 32 31 29 30 25 25 26 28 28 28 28 28 28 29 30 29 28 27 26 24 24 24 24 23 21 20 20 20 20 20 19 18 18
27 29 32 30 27 25 26 25 26 24 20 20 21 25 26 25 29 28 25 25 28 30 30 29 26 29 32 32 33 34 33 34 37 38 39 38 37 37 37 36 35 33 32 31 30 29 28 27 25 23 23 24 24 24
30 30 31 29 29 27 27 24 23 24 22 20 21 24 26 27 26 27 31 29 26 21 21 21 23 21 19 18 19 18 16 20 22 26 28 31 32 36 40 44 45 43 41 39 38 37 35 34 33 32 30 28 26 25
29 29 34 33 30 29 27 24 24 22 23 22 21 22 26 27 28 26 25 30 26 26 28 27 24 22 22 22 23 23 23 23 23 23 24 26 28 29 30 29 28 31 37 41 44 45 45 44 43 40 38 37 36 33
32 32 34 34 33 32 24 22 21 22 24 24 25 23 25 27 27 25 26 24 27 29 29 26 23 22 22 23 23 23 23 24 24 25 25 25 26 27 30 33 35 37 39 40 39 38 40 41 42 44 47 46 43 41
35 37 37 37 37 32 21 23 21 22 23 25 24 24 25 25 26 27 24 22 27 28 28 24 23 24 24 23 24 24 25 26 26 26 27 28 29 31 32 34 35 37 38 40 42 43 44 46 46 44 43 42 46 50
40 41 44 44 38 28 22 21 20 23 22 23 25 24 24 26 26 25 23 21 23 23 23 23 23 23 24 25 26 27 27 27 29 30 32 31 32 34 37 38 39 41 41 41 42 43 44 44 45 45 45 47 47 46
48 48 46 40 33 25 24 20 21 22 21 23 25 25 24 24 24 21 20 21 22 22 23 24 25 25 26 27 27 27 28 30 31 32 34 36 37 38 39 40 42 44 45 44 46 47 49 48 47 46 46 47 47 49
52 51 43 35 28 24 22 22 21 20 20 23 24 24 23 23 21 20 21 21 22 23 24 25 26 26 26 27 27 28 30 32 34 35 37 39 42 43 44 44 45 47 48 48 48 48 49 50 51 50 50 50 50 50
58 48 39 32 27 25 24 22 21 21 22 22 21 21 22 20 19 21 21 21 22 24 25 24 24 25 26 26 29 31 32 33 35 37 40 43 45 48 49 48 49 51 51 51 52 51 49 49 49 51 52 54 55 55
42 37 35 32 27 23 23 21 21 23 22 21 20 21 20 20 21 21 21 22 22 22 20 21 23 24 26 29 31 32 33 35 38 41 43 44 46 50 51 51 52 54 56 56 54 54 53 53 52 51 51 52 53 56
37 35 33 29 22 21 22 21 22 23 24 23 22 21 19 20 21 21 20 19 19 19 21 22 24 27 29 30 32 34 37 41 43 44 44 46 48 52 55 57 57 56 54 51 49 49 49 50 49 48 47 47 49 49
38 34 29 25 23 20 19 22 25 27 25 22 20 19 19 20 20 19 18 18 18 20 22 24 26 27 29 32 35 38 42 44 45 47 48 51 54 57 57 55 50 47 44 44 44 45 42 42 42 42 43 44 44 44
33 30 26 23 19 18 19 22 25 25 23 20 19 19 19 18 18 19 20 19 20 22 23 24 27 29 33 35 38 39 41 44 47 49 52 55 55 51 46 45 44 44 39 34 33 31 28 28 30 33 37 38 37 37
26 24 22 19 19 20 21 23 24 22 20 19 19 17 17 18 18 19 21 19 20 21 23 26 29 32 34 36 38 40 42 44 46 50 52 48 42 40 44 41 31 25 21 18 16 17 20 22 25 27 29 30 31 34
Wind_Direction
290 290 290 279 274 275 273 271 264 267 285 284 287 290 291 294 295 291 287 286 284 276 269 264 261 256 245 240 239 247 246 241 236 226 222 223 224 221 220 218 220 225 225 219 227 212 220 221 228 243 260 283 312 338
286 294 288 275 270 270 272 276 257 270 284 289 283 293 289 292 301 298 288 285 282 280 269 269 263 250 245 239 235 239 246 245 243 233 225 225 222 220 220 221 223 227 226 219 222 221 222 227 227 227 234 276 310 324
285 288 285 272 264 271 277 265 262 273 284 287 285 286 290 296 298 297 292 288 286 280 271 265 260 246 238 231 231 227 233 232 237 237 230 227 226 222 225 225 226 228 229 221 222 225 228 233 235 239 250 269 284 301
284 276 277 276 272 270 277 265 272 272 274 281 286 289 298 300 301 298 294 294 291 285 277 269 259 249 233 221 219 218 223 230 233 232 228 225 226 227 229 231 236 232 227 226 222 233 232 239 242 248 261 272 276 281
281 275 271 271 271 275 272 270 263 263 271 280 292 299 305 310 304 304 305 301 294 286 277 257 243 224 213 211 208 209 215 220 222 224 224 225 225 226 228 231 241 235 230 235 226 236 235 245 251 257 271 272 269 269
289 285 284 275 268 270 258 252 267 281 290 294 296 303 310 312 314 316 310 305 297 286 262 224 205 197 188 194 198 198 205 212 215 214 214 220 226 229 225 228 245 241 237 238 238 239 240 247 250 256 264 267 271 266
292 281 274 273 267 263 258 249 284 294 301 304 308 313 315 321 324 326 327 357 82 104 107 120 140 150 180 183 187 186 192 204 209 214 219 229 232 238 235 237 245 250 246 241 240 234 227 237 244 252 261 265 266 263
293 279 288 277 279 270 254 277 292 299 305 313 315 317 326 333 350 49 94 100 86 99 121 115 153 160 168 173 177 185 196 204 212 220 224 230 235 246 251 251 248 251 257 243 238 236 236 236 237 247 252 256 257 260
285 289 274 272 278 257 269 279 290 307 316 319 316 328 342 22 103 111 100 101 86 122 120 125 141 164 170 173 179 182 192 204 229 229 225 228 235 251 256 257 256 254 254 247 236 236 234 236 235 238 244 245 245 247
286 292 279 284 288 264 283 270 290 306 317 320 319 341 347 114 113 141 71 79 89 103 126 139 150 161 169 175 190 204 211 220 239 227 226 229 238 244 255 258 257 254 250 243 241 237 238 238 236 238 242 243 238 245
279 278 282 273 271 277 279 283 293 302 309 310 307 330 221 158 126 133 133 118 97 104 127 142 162 173 175 187 184 191 212 220 232 226 231 227 230 242 256 262 258 253 245 237 238 233 228 233 239 241 242 242 240 242
266 264 269 264 264 264 269 278 284 297 299 293 283 273 188 196 187 178 185 170 164 133 135 152 156 165 170 174 183 193 205 216 227 234 235 229 235 247 254 261 258 252 244 234 229 229 233 239 243 247 248 250 247 246
254 253 254 257 261 258 261 268 275 284 283 287 274 245 206 204 186 188 182 178 179 181 173 175 186 182 190 185 199 222 220 228 224 227 232 234 242 251 263 271 268 254 250 244 241 236 251 251 250 254 255 249 240 237
263 254 251 253 258 258 262 267 268 267 273 270 274 246 224 210 204 205 200 200 207 206 201 200 197 188 195 214 240 246 249 258 262 260 252 245 240 247 259 269 268 224 236 233 242 242 241 272 268 261 261 246 235 233
271 276 270 263 257 261 263 265 262 259 261 261 261 246 224 212 208 215 211 213 218 221 217 215 218 219 229 226 233 232 241 258 250 259 250 246 244 252 259 266 274 266 209 203 202 221 227 243 255 265 245 212 210 206
277 280 274 273 267 260 263 261 259 252 250 253 249 244 220 216 218 222 223 216 222 231 228 223 226 225 230 236 238 236 243 246 246 246 257 271 278 288 288 283 280 281 274 218 215 237 233 222 213 200 199 210 220 230
277 277 272 273 273 266 260 260 256 256 253 243 233 231 224 217 218 220 226 228 231 233 237 241 242 239 238 242 242 242 242 246 252 260 268 277 283 283 290 299 302 296 291 285 267 250 249 247 238 233 214 220 229 230
274 282 281 274 276 277 265 257 263 262 262 250 233 225 230 219 224 225 226 226 226 230 232 236 242 244 246 249 253 247 248 252 257 263 267 268 270 271 270 273 280 286 293 297 293 285 276 269 260 248 241 238 231 228
276 279 284 286 281 279 270 256 261 266 265 257 236 229 222 230 222 232 234 233 232 233 236 237 241 244 247 246 248 250 252 253 254 257 260 263 263 264 264 265 265 268 274 278 282 284 288 286 282 278 275 267 260 251
274 281 284 284 277 274 271 264 258 259 259 257 239 235 228 224 225 223 232 240 237 237 242 247 250 245 244 247 250 251 253 256 258 260 263 265 266 266 266 266 267 265 265 266 267 271 275 276 278 280 281 278 276 274
265 274 282 282 270 271 268 267 257 254 256 257 246 237 235 230 225 230 229 228 238 236 234 236 242 247 249 244 244 250 255 254 258 263 265 268 270 270 269 266 263 262 263 263 263 264 263 264 266 265 267 271 274 274
259 272 276 282 274 264 262 260 256 253 254 252 251 243 239 237 237 230 233 236 228 237 238 236 236 243 250 250 251 255 261 265 268 270 269 267 271 274 275 276 275 270 265 262 261 262 263 264 264 262 262 262 262 263
254 263 272 276 273 262 255 244 254 256 252 251 251 243 241 243 241 237 236 239 232 230 236 239 240 241 246 251 254 256 262 265 266 266 267 269 271 273 274 275 274 272 270 269 267 264 263 261 260 260 258 258 257 258
249 256 266 270 267 260 245 235 249 258 256 253 249 244 240 242 242 241 236 230 235 243 246 243 242 248 252 255 260 264 267 271 274 274 277 280 281 281 280 278 277 274 272 270 269 267 264 262 262 260 259 260 257 254
252 256 257 263 262 246 229 237 253 257 261 251 243 242 241 242 239 237 232 230 236 244 245 242 246 252 257 262 265 268 272 274 276 277 279 281 283 283 283 283 282 280 278 274 271 267 264 262 259 258 256 255 255 255
248 255 254 255 246 233 223 246 256 259 258 242 239 239 238 237 237 232 230 231 236 242 243 246 251 256 260 263 267 271 275 277 278 280 283 286 286 284 282 279 277 277 276 274 271 268 265 262 259 256 254 252 252 251
242 247 248 243 227 222 235 249 254 258 244 237 238 238 237 236 235 233 233 235 239 244 249 254 257 258 264 269 273 275 276 279 282 286 288 288 286 285 283 281 280 282 282 279 276 271 267 263 260 257 254 252 250 248
240 237 233 219 220 224 239 243 249 241 236 239 240 239 237 235 233 233 236 238 242 246 251 257 262 265 270 275 276 278 282 285 288 288 287 286 286 286 286 286 285 284 284 283 280 276 272 266 261 257 253 248 245 244
220 212 205 210 212 229 235 244 242 232 232 234 234 234 235 235 235 237 240 244 248 254 259 263 266 272 274 276 280 284 288 291 290 289 291 293 293 293 292 290 288 288 286 283 279 275 270 265 261 256 251 247 243 240
191 200 203 204 214 228 235 239 227 223 228 234 236 238 238 238 237 238 243 246 251 257 262 266 269 272 277 283 288 292 293 293 293 295 297 297 297 296 295 293 292 289 284 280 275 270 266 261 256 251 246 241 238 235
197 199 202 208 212 221 234 229 223 224 230 236 237 236 237 238 242 244 248 252 255 259 264 270 277 284 288 292 295 297 298 297 299 301 302 301 300 298 297 295 291 287 282 280 275 273 268 259 250 241 233 229 229 227
196 203 207 206 210 226 230 227 226 229 233 235 234 233 237 240 242 251 254 253 258 266 276 283 289 293 296 298 299 300 301 303 304 304 304 304 303 300 298 298 295 292 287 278 272 265 253 239 227 218 215 216 218 216
201 204 201 204 213 220 224 226 227 227 232 233 233 234 236 241 245 248 257 265 273 281 287 292 296 298 301 302 304 305 307 306 307 306 306 306 303 306 308 304 296 288 278 263 250 241 228 212 202 201 206 211 209 201